GEC61J EDDF-EGCC

Flight info

Callsign GEC61J
Flight time N/A
Altitude 34000
Route OBOKA5S OBOKA Z29 TORNU DCT GALSO Q63 ERING L179 LAM UN57 WELIN T420 ELVOS
Aircraft B77L/H-SDE1E2E3FGHIJ2J3J4J5M1RWXY/LB1D1

Departure

Time 2026-04-19 06:16
Airport Frankfurt Main Airport (EDDF)

Arrival

Time N/A
Airport Manchester Airport (EGCC)
Time Latitude Longitude Altitude Speed Heading
2026-04-19 06:03 50.03713 8.53098 348 ft 0 kts 339°
2026-04-19 06:10 50.03684 8.53116 358 ft 3 kts 336°
2026-04-19 06:10 50.03666 8.53129 358 ft 4 kts 333°
2026-04-19 06:10 50.03650 8.53145 358 ft 2 kts 321°
2026-04-19 06:10 50.03640 8.53161 358 ft 2 kts 295°
2026-04-19 06:11 50.03637 8.53177 358 ft 2 kts 268°
2026-04-19 06:11 50.03638 8.53194 358 ft 2 kts 252°
2026-04-19 06:11 50.03642 8.53210 358 ft 2 kts 247°
2026-04-19 06:12 50.03642 8.53211 358 ft 0 kts 247°
2026-04-19 06:14 50.03637 8.53193 358 ft 5 kts 247°
2026-04-19 06:14 50.03619 8.53124 358 ft 10 kts 247°
2026-04-19 06:14 50.03535 8.53042 354 ft 20 kts 213°
2026-04-19 06:14 50.03455 8.52805 354 ft 28 kts 248°
2026-04-19 06:15 50.03405 8.52631 358 ft 15 kts 231°
2026-04-19 06:15 50.03350 8.52599 353 ft 0 kts 181°
2026-04-19 06:15 50.03278 8.52599 356 ft 33 kts 179°
2026-04-19 06:15 50.02770 8.52603 348 ft 111 kts 180°
2026-04-19 06:16 50.01771 8.52607 355 ft 172 kts 179°
2026-04-19 06:16 50.00515 8.52654 790 ft 183 kts 178°
2026-04-19 06:16 49.99212 8.52623 1442 ft 191 kts 184°
2026-04-19 06:16 49.97884 8.52391 2038 ft 194 kts 208°
2026-04-19 06:17 49.96841 8.51083 2340 ft 202 kts 234°
2026-04-19 06:17 49.95797 8.49411 2598 ft 230 kts 231°
2026-04-19 06:17 49.94578 8.47552 2935 ft 256 kts 229°
2026-04-19 06:17 49.93284 8.45610 3870 ft 259 kts 228°
2026-04-19 06:18 49.91990 8.43676 4912 ft 257 kts 228°
2026-04-19 06:18 49.90728 8.41789 5903 ft 256 kts 227°
2026-04-19 06:18 49.89445 8.39873 6839 ft 257 kts 227°
2026-04-19 06:18 49.88186 8.37913 7652 ft 255 kts 235°
2026-04-19 06:19 49.87462 8.35429 8384 ft 256 kts 262°
2026-04-19 06:19 49.87513 8.32678 9280 ft 257 kts 280°
2026-04-19 06:19 49.88168 8.30081 10113 ft 264 kts 296°
2026-04-19 06:19 49.89178 8.27619 10695 ft 280 kts 300°
2026-04-19 06:20 49.90319 8.24983 10890 ft 308 kts 300°
2026-04-19 06:20 49.91556 8.22078 11124 ft 336 kts 300°
2026-04-19 06:20 49.92859 8.18959 11725 ft 351 kts 299°
2026-04-19 06:20 49.94242 8.15794 12540 ft 359 kts 305°
2026-04-19 06:21 49.96065 8.13022 13326 ft 373 kts 315°
2026-04-19 06:21 49.98075 8.10425 14258 ft 378 kts 316°
2026-04-19 06:21 50.00116 8.07801 15140 ft 383 kts 315°
2026-04-19 06:21 50.02174 8.05127 16015 ft 388 kts 315°
2026-04-19 06:22 50.04251 8.02394 16824 ft 395 kts 315°
2026-04-19 06:22 50.06356 7.99596 17624 ft 401 kts 314°